• In Uzbekistan
  • List of Countries
  • For 7 days
  • Water Temperature
  • Satellite Maps
  • Weather Map
  • Weather Widgets
  • user-avatar
    Login

    Hourly Weather Shtul

    Today, 22 June, Friday

    Time Temperature Precipitation Wind Pressure Humidity
    00:00 +14°C° 0 mm 3 mps 646 mmHg 66%
    01:00 +14°C° 0 mm 3 mps 646 mmHg 64%
    02:00 +13°C° 0 mm 3 mps 646 mmHg 63%
    03:00 +13°C° 0 mm 3 mps 645 mmHg 62%
    04:00 +15°C° 0 mm 2 mps 646 mmHg 60%
    05:00 +16°C° 0 mm 2 mps 646 mmHg 57%
    06:00 +17°C° 0 mm 2 mps 646 mmHg 55%
    07:00 +19°C° 0 mm 2 mps 647 mmHg 48%
    08:00 +21°C° 0 mm 2 mps 647 mmHg 41%
    09:00 +24°C° 0 mm 2 mps 648 mmHg 34%
    10:00 +24°C° 0 mm 2 mps 648 mmHg 34%
    11:00 +25°C° 0 mm 3 mps 648 mmHg 33%
    12:00 +26°C° 0 mm 3 mps 648 mmHg 33%
    13:00 +25°C° 0 mm 3 mps 647 mmHg 35%
    14:00 +25°C° 0 mm 3 mps 647 mmHg 36%
    15:00 +25°C° 0 mm 3 mps 647 mmHg 37%
    16:00 +24°C° 0 mm 2 mps 646 mmHg 41%
    17:00 +23°C° 0 mm 2 mps 646 mmHg 44%
    18:00 +22°C° 0 mm 1 mps 646 mmHg 48%
    19:00 +20°C° 0 mm 2 mps 645 mmHg 51%
    20:00 +18°C° 0 mm 2 mps 645 mmHg 54%
    21:00 +16°C° 0 mm 2 mps 644 mmHg 57%
    22:00 +16°C° 0 mm 2 mps 644 mmHg 58%
    23:00 +15°C° 0 mm 2 mps 644 mmHg 58%

    Tomorrow, 23 June, Saturday

    Time Temperature Precipitation Wind Pressure Humidity
    00:00 +15°C° 0 mm 2 mps 644 mmHg 59%
    01:00 +15°C° 0 mm 2 mps 644 mmHg 59%
    02:00 +15°C° 0 mm 2 mps 644 mmHg 59%
    03:00 +15°C° 0 mm 2 mps 644 mmHg 59%
    04:00 +16°C° 0 mm 2 mps 644 mmHg 59%
    05:00 +18°C° 0 mm 1 mps 645 mmHg 58%
    06:00 +19°C° 0 mm 1 mps 645 mmHg 58%
    07:00 +21°C° 0 mm 1 mps 646 mmHg 52%
    08:00 +21°C° 0 mm 2 mps 646 mmHg 47%
    09:00 +24°C° 0 mm 2 mps 646 mmHg 41%
    10:00 +24°C° 0 mm 2 mps 647 mmHg 40%
    11:00 +25°C° 0 mm 3 mps 647 mmHg 40%
    12:00 +26°C° 0 mm 3 mps 647 mmHg 39%
    13:00 +25°C° 0.2 mm 3 mps 646 mmHg 40%
    14:00 +25°C° 0.2 mm 3 mps 646 mmHg 40%
    15:00 +25°C° 0.2 mm 3 mps 646 mmHg 41%
    16:00 +24°C° 0 mm 3 mps 645 mmHg 44%
    17:00 +23°C° 0 mm 2 mps 645 mmHg 47%
    18:00 +21°C° 0 mm 2 mps 645 mmHg 51%
    19:00 +20°C° 0 mm 2 mps 644 mmHg 54%
    20:00 +18°C° 0 mm 2 mps 644 mmHg 56%
    21:00 +16°C° 0 mm 2 mps 644 mmHg 59%
    22:00 +16°C° 0 mm 2 mps 644 mmHg 58%
    23:00 +16°C° 0 mm 2 mps 644 mmHg 57%

    Day after tomorrow, 24 June, Sunday

    Time Temperature Precipitation Wind Pressure Humidity
    00:00 +16°C° 0 mm 2 mps 644 mmHg 56%
    01:00 +16°C° 0 mm 2 mps 644 mmHg 54%
    02:00 +15°C° 0 mm 2 mps 644 mmHg 53%
    03:00 +15°C° 0 mm 2 mps 644 mmHg 51%
    04:00 +16°C° 0 mm 2 mps 644 mmHg 51%
    05:00 +18°C° 0 mm 2 mps 645 mmHg 51%
    06:00 +20°C° 0 mm 1 mps 645 mmHg 51%
    07:00 +21°C° 0 mm 2 mps 646 mmHg 47%
    08:00 +23°C° 0 mm 2 mps 646 mmHg 42%
    09:00 +25°C° 0 mm 2 mps 647 mmHg 37%
    10:00 +26°C° 0 mm 2 mps 647 mmHg 37%
    11:00 +27°C° 0 mm 3 mps 647 mmHg 37%
    12:00 +27°C° 0 mm 3 mps 647 mmHg 37%
    13:00 +27°C° 0 mm 3 mps 647 mmHg 37%
    14:00 +27°C° 0 mm 3 mps 647 mmHg 38%
    15:00 +27°C° 0 mm 3 mps 647 mmHg 39%
    16:00 +26°C° 0 mm 3 mps 647 mmHg 42%
    17:00 +25°C° 0 mm 2 mps 647 mmHg 46%
    18:00 +24°C° 0 mm 2 mps 646 mmHg 49%
    19:00 +21°C° 0 mm 2 mps 646 mmHg 52%
    20:00 +19°C° 0 mm 2 mps 646 mmHg 55%
    21:00 +17°C° 0 mm 2 mps 646 mmHg 58%
    22:00 +17°C° 0 mm 2 mps 646 mmHg 57%
    23:00 +17°C° 0 mm 2 mps 646 mmHg 57%

    25 June, Monday

    Time Temperature Precipitation Wind Pressure Humidity
    00:00 +17°C° 0 mm 2 mps 646 mmHg 57%
    01:00 +17°C° 0 mm 2 mps 646 mmHg 56%
    02:00 +16°C° 0 mm 2 mps 646 mmHg 56%
    03:00 +16°C° 0 mm 2 mps 646 mmHg 56%
    04:00 +17°C° 0 mm 2 mps 646 mmHg 55%
    05:00 +19°C° 0 mm 2 mps 647 mmHg 55%
    06:00 +20°C° 0 mm 2 mps 647 mmHg 54%
    07:00 +21°C° 0 mm 2 mps 648 mmHg 49%
    08:00 +24°C° 0 mm 2 mps 648 mmHg 44%
    09:00 +26°C° 0 mm 3 mps 649 mmHg 39%
    10:00 +26°C° 0 mm 3 mps 649 mmHg 39%
    11:00 +27°C° 0 mm 3 mps 649 mmHg 38%
    12:00 +28°C° 0 mm 3 mps 649 mmHg 38%
    13:00 +27°C° 0.1 mm 3 mps 649 mmHg 39%
    14:00 +27°C° 0.1 mm 3 mps 649 mmHg 40%
    15:00 +27°C° 0.1 mm 3 mps 649 mmHg 41%
    16:00 +26°C° 0 mm 3 mps 648 mmHg 44%
    17:00 +25°C° 0 mm 2 mps 648 mmHg 47%
    18:00 +25°C° 0 mm 2 mps 648 mmHg 50%
    19:00 +23°C° 0 mm 2 mps 648 mmHg 54%
    20:00 +20°C° 0 mm 2 mps 647 mmHg 58%
    21:00 +18°C° 0 mm 2 mps 647 mmHg 61%
    22:00 +18°C° 0 mm 2 mps 647 mmHg 61%
    23:00 +18°C° 0 mm 2 mps 647 mmHg 61%

    26 June, Tuesday

    Time Temperature Precipitation Wind Pressure Humidity
    00:00 +18°C° 0 mm 2 mps 647 mmHg 60%
    01:00 +18°C° 0 mm 2 mps 646 mmHg 60%
    02:00 +18°C° 0 mm 2 mps 646 mmHg 59%
    03:00 +18°C° 0 mm 2 mps 646 mmHg 58%
    04:00 +19°C° 0 mm 2 mps 646 mmHg 57%
    05:00 +20°C° 0 mm 2 mps 647 mmHg 56%
    06:00 +21°C° 0 mm 2 mps 647 mmHg 55%
    07:00 +24°C° 0 mm 2 mps 647 mmHg 48%
    08:00 +26°C° 0 mm 2 mps 648 mmHg 42%
    09:00 +27°C° 0 mm 2 mps 648 mmHg 35%
    10:00 +28°C° 0 mm 2 mps 648 mmHg 35%
    11:00 +29°C° 0 mm 3 mps 648 mmHg 34%
    12:00 +30°C° 0 mm 3 mps 648 mmHg 34%
    13:00 +30°C° 0 mm 3 mps 648 mmHg 34%
    14:00 +29°C° 0 mm 3 mps 647 mmHg 35%
    15:00 +29°C° 0 mm 3 mps 647 mmHg 36%
    16:00 +28°C° 0 mm 2 mps 647 mmHg 40%
    17:00 +27°C° 0 mm 2 mps 647 mmHg 43%
    18:00 +27°C° 0 mm 2 mps 647 mmHg 47%
    19:00 +25°C° 0 mm 2 mps 646 mmHg 49%
    20:00 +23°C° 0 mm 2 mps 646 mmHg 52%
    21:00 +20°C° 0 mm 2 mps 645 mmHg 54%
    22:00 +20°C° 0 mm 2 mps 645 mmHg 53%
    23:00 +19°C° 0 mm 2 mps 645 mmHg 52%

    27 June, Wednesday

    Time Temperature Precipitation Wind Pressure Humidity
    00:00 +19°C° 0 mm 2 mps 645 mmHg 51%
    01:00 +19°C° 0 mm 2 mps 645 mmHg 50%
    02:00 +19°C° 0 mm 2 mps 644 mmHg 48%
    03:00 +19°C° 0 mm 2 mps 644 mmHg 47%
    04:00 +20°C° 0 mm 2 mps 645 mmHg 48%
    05:00 +21°C° 0 mm 2 mps 645 mmHg 48%
    06:00 +23°C° 0 mm 1 mps 645 mmHg 48%
    07:00 +24°C° 0 mm 2 mps 646 mmHg 44%
    08:00 +26°C° 0 mm 2 mps 646 mmHg 39%
    09:00 +28°C° 0 mm 2 mps 647 mmHg 35%
    10:00 +29°C° 0 mm 2 mps 647 mmHg 34%
    11:00 +30°C° 0 mm 2 mps 647 mmHg 33%
    12:00 +30°C° 0 mm 3 mps 647 mmHg 32%
    13:00 +30°C° 0 mm 3 mps 646 mmHg 33%
    14:00 +30°C° 0 mm 3 mps 646 mmHg 34%
    15:00 +30°C° 0 mm 3 mps 646 mmHg 35%
    16:00 +29°C° 0 mm 3 mps 646 mmHg 40%
    17:00 +28°C° 0 mm 2 mps 645 mmHg 45%
    18:00 +27°C° 0 mm 2 mps 645 mmHg 49%
    19:00 +25°C° 0 mm 2 mps 645 mmHg 52%
    20:00 +23°C° 0 mm 2 mps 645 mmHg 55%
    21:00 +20°C° 0 mm 2 mps 644 mmHg 58%
    22:00 +20°C° 0 mm 2 mps 644 mmHg 56%
    23:00 +20°C° 0 mm 2 mps 644 mmHg 55%
    Show more